Date,TemperatureHighF,TemperatureAvgF,TemperatureLowF,DewpointHighF,DewpointAvgF,DewpointLowF,HumidityHigh,HumidityAvg,HumidityLow,PressureMaxIn,PressureMinIn,WindSpeedMaxMPH,WindSpeedAvgMPH,GustSpeedMaxMPH,PrecipitationSumIn
2013-1-1,42.5,34.4,30.4,27.0,23.2,20.4,75,64,51,30.47,30.36,22,2,22,0.94
2013-1-2,41.8,35.3,33.2,24.7,22.3,20.8,64,59,48,30.36,30.22,20,2,20,0.00
2013-1-3,40.2,35.4,32.7,31.8,22.9,19.9,82,61,47,30.27,30.16,23,2,23,0.00
2013-1-4,47.0,38.4,35.3,37.7,31.9,25.3,91,78,64,30.37,30.19,17,1,17,0.01
2013-1-5,37.8,36.1,34.9,32.5,28.3,25.1,86,73,66,30.25,30.17,19,1,19,0.02
2013-1-6,43.2,38.9,34.9,41.0,36.1,32.1,92,90,87,30.26,30.07,12,0,12,0.21
2013-1-7,52.0,48.1,43.2,48.0,44.8,41.0,93,88,84,30.22,29.98,22,4,22,0.14
2013-1-8,54.4,50.8,45.8,48.1,46.0,42.8,93,84,76,30.21,29.90,24,4,24,0.10
2013-1-9,51.7,43.7,36.2,45.0,39.2,33.8,92,85,70,29.99,29.70,24,3,24,0.15
2013-1-10,38.5,36.6,34.0,35.7,34.0,31.7,92,90,85,30.11,29.99,11,1,0,0.12
2013-1-11,41.6,34.2,29.8,33.6,30.1,26.5,93,85,61,30.32,30.11,6,0,0,0.00
2013-1-12,38.6,30.6,26.1,31.3,26.8,23.8,92,86,69,30.42,30.31,7,0,0,0.00
2013-1-13,37.0,31.3,28.7,27.5,25.8,23.3,91,80,63,30.51,30.41,6,0,0,0.00
2013-1-14,33.5,31.3,29.1,31.4,27.5,24.6,92,86,80,30.58,30.50,6,0,0,0.04
2013-1-15,37.8,35.6,33.5,34.7,32.8,31.4,93,90,85,30.68,30.58,6,0,0,0.02
2013-1-16,37.0,35.6,34.6,33.2,32.3,31.7,90,88,84,30.67,30.50,4,0,0,0.00
2013-1-17,47.6,36.9,30.9,33.2,29.8,26.0,91,77,53,30.50,30.32,7,0,0,0.00
2013-1-18,44.9,32.2,26.3,33.2,27.7,23.8,92,84,63,30.34,30.27,5,0,0,0.00
2013-1-19,44.6,32.0,25.4,34.7,28.5,23.4,93,87,65,30.36,30.28,4,0,0,0.00
2013-1-20,44.2,32.6,25.8,34.3,26.2,23.4,93,79,55,30.38,30.25,14,1,14,0.00
2013-1-21,46.4,32.3,25.1,30.6,26.0,23.1,92,79,49,30.30,30.17,11,0,0,0.00
2013-1-22,43.2,32.8,25.0,26.4,23.0,21.1,88,68,46,30.18,29.95,21,1,21,0.00
2013-1-23,35.6,35.1,34.0,33.5,30.9,22.4,92,85,62,30.22,29.97,10,0,0,0.17
2013-1-24,44.8,38.8,35.3,40.9,36.3,33.4,93,90,81,30.25,30.11,12,0,12,0.27
2013-1-25,50.5,45.3,41.9,48.8,43.4,40.0,95,93,89,30.14,29.96,8,0,0,0.13
2013-1-26,46.2,42.6,39.8,41.6,39.0,36.3,93,87,76,30.09,29.94,14,2,14,0.04
2013-1-27,42.3,40.5,39.2,39.1,37.5,36.1,91,89,82,30.16,30.05,15,2,15,0.12
2013-1-28,43.3,41.6,39.8,41.4,39.5,37.4,93,92,91,30.22,30.08,11,2,0,0.57
2013-1-29,46.2,44.5,42.6,44.6,42.6,40.7,94,93,88,30.47,30.21,13,2,13,0.37
2013-1-30,49.1,46.0,43.3,45.5,43.1,40.3,92,90,86,30.47,30.42,19,3,19,0.12
2013-1-31,52.9,48.2,44.9,45.8,44.3,43.0,94,86,71,30.45,30.33,7,1,0,0.01
2013-2-1,57.2,48.2,42.2,46.1,43.7,39.2,93,85,63,30.37,30.26,9,0,0,0.00
2013-2-2,56.2,44.2,37.3,42.9,38.6,34.9,92,81,58,30.31,30.25,8,1,0,0.00
2013-2-3,47.1,43.1,38.6,41.9,39.9,35.6,93,89,81,30.35,30.23,6,0,0,0.00
2013-2-4,53.6,46.7,41.6,42.9,41.0,39.2,92,81,61,30.25,29.94,8,0,0,0.00
2013-2-5,52.8,47.1,44.6,43.6,41.4,39.5,88,81,67,30.05,29.92,19,3,19,0.05
2013-2-6,51.3,46.5,43.2,42.9,40.1,37.8,86,79,61,30.10,29.85,23,2,23,0.09
2013-2-7,49.9,42.8,36.2,39.5,37.1,33.5,91,81,54,30.15,29.92,16,1,16,0.08
2013-2-8,47.7,38.0,31.5,38.3,33.9,29.4,94,86,60,30.29,30.15,9,0,0,0.00
2013-2-9,40.1,36.8,35.0,36.3,33.9,32.1,91,89,85,30.29,30.26,6,0,0,0.00
2013-2-14,49.4,45.1,42.2,41.5,40.5,39.1,90,84,74,30.53,30.51,3,0,0,0.00
2013-2-15,62.9,49.4,41.2,45.3,41.4,38.8,92,76,49,30.51,30.19,8,1,0,0.00
2013-2-16,52.3,45.0,40.6,45.5,40.3,35.9,93,84,68,30.28,30.21,14,1,14,0.06
2013-2-17,47.9,42.4,37.8,36.7,35.0,32.0,87,76,55,30.30,30.10,8,0,0,0.00
2013-2-18,47.9,41.4,35.2,35.5,33.7,31.7,89,75,56,30.11,29.75,13,1,13,0.00
2013-2-19,55.7,44.3,37.3,41.8,36.5,31.1,91,76,44,30.00,29.71,10,0,0,0.10
2013-2-20,48.0,41.3,34.9,40.0,36.5,31.4,90,83,65,30.10,30.00,11,2,12,0.08
2013-2-21,44.8,42.1,39.1,39.3,37.7,35.5,89,84,76,30.19,30.09,17,3,17,0.02
2013-2-22,45.7,43.6,38.0,42.9,39.1,33.6,91,84,74,30.17,29.88,31,6,31,0.07
2013-2-23,47.1,41.1,37.5,38.0,35.0,32.7,89,79,60,30.44,30.07,14,2,14,0.00
2013-2-24,52.5,43.9,37.6,37.6,34.0,30.2,87,70,45,30.44,30.05,17,2,17,0.00
2013-2-25,47.6,42.7,38.6,41.3,37.1,33.4,90,81,60,30.39,30.01,25,2,25,0.00
2013-2-26,50.2,42.6,35.3,37.6,34.7,31.1,91,75,51,30.40,30.24,15,1,15,0.00
2013-2-27,52.9,47.8,42.5,44.6,39.6,35.9,90,74,57,30.31,30.24,11,1,0,0.00
2013-2-28,55.7,52.0,46.4,51.3,48.5,44.0,93,88,83,30.43,30.19,16,3,17,0.01
2013-3-1,60.5,55.7,53.2,50.1,48.9,47.8,84,78,64,30.45,30.31,18,2,19,0.00
2013-3-2,56.3,51.0,43.8,48.9,45.5,37.4,90,82,68,30.31,30.15,11,1,0,0.01
2013-3-3,51.6,42.7,34.7,37.7,34.4,30.9,92,74,46,30.33,30.25,9,0,0,0.00
2013-3-4,58.3,44.4,33.1,33.5,28.7,23.8,91,59,29,30.26,29.91,16,1,16,0.00
2013-3-5,47.0,42.6,38.2,41.8,34.7,25.2,90,75,48,29.92,29.65,10,0,0,0.00
2013-3-6,44.3,42.3,40.9,41.3,39.2,37.0,92,88,79,29.97,29.55,20,2,20,0.00
2013-3-7,58.9,46.2,34.3,40.4,35.6,31.3,92,69,39,30.06,29.97,10,0,0,0.00
2013-3-8,59.8,46.2,33.8,39.5,34.7,27.4,91,68,33,30.22,30.03,10,1,0,0.00
2013-3-9,59.6,46.0,32.1,40.6,34.8,29.1,92,68,35,30.49,30.22,9,0,0,0.00
2013-3-10,50.1,44.3,37.6,41.8,38.0,33.8,87,79,67,30.50,30.42,6,0,0,0.00
2013-3-11,54.7,49.7,45.7,48.5,44.8,40.6,89,83,75,30.43,30.24,8,0,0,0.00
2013-3-12,61.0,54.4,50.1,48.5,46.9,44.1,90,77,58,30.24,30.15,13,2,13,0.00
2013-3-13,64.7,55.6,47.9,48.3,45.6,43.3,87,70,48,30.23,30.08,9,0,0,0.00
2013-3-14,60.9,54.0,48.5,47.9,44.9,36.1,90,72,42,30.20,30.05,15,1,15,0.00
2013-3-15,65.0,56.8,51.0,48.7,46.4,41.5,84,69,43,30.23,30.15,11,2,0,0.00
2013-3-16,51.0,47.5,40.3,46.0,42.5,37.3,89,83,72,30.17,30.01,21,2,21,0.00
2013-3-17,50.4,43.6,38.0,37.2,33.5,30.1,89,69,46,30.30,30.14,14,2,14,0.00
2013-3-18,55.0,45.4,38.3,38.7,34.8,32.3,84,68,48,30.29,30.16,12,1,12,0.00
2013-3-19,53.5,44.9,39.1,43.9,37.0,29.7,93,75,47,30.16,29.67,19,1,19,0.00
2013-3-20,52.8,48.4,40.6,49.8,42.0,32.2,94,79,56,30.16,29.52,27,5,27,0.00
2013-3-21,51.7,42.8,38.8,37.5,33.9,30.4,86,72,45,30.31,30.16,15,2,15,0.00
2013-3-22,47.0,39.5,35.3,37.9,33.6,27.8,91,80,52,30.40,30.30,13,1,13,0.00
2013-3-23,52.0,41.3,34.1,38.1,32.2,25.5,93,73,37,30.40,30.28,10,0,0,0.00
2013-3-24,56.9,46.2,37.9,34.8,31.8,28.6,84,60,36,30.28,30.08,13,1,13,0.00
2013-3-25,64.5,52.5,42.5,36.9,31.5,26.1,69,46,27,30.09,29.90,14,1,14,0.00
2013-3-26,53.3,48.2,41.3,44.7,40.8,35.3,84,76,57,30.03,29.96,9,0,0,0.00
2013-3-27,66.4,53.4,41.9,49.9,43.2,38.9,92,71,39,29.99,29.89,15,1,15,0.00
2013-3-28,66.9,56.1,46.0,49.7,45.1,40.3,92,69,39,30.13,29.99,9,0,0,0.00
2013-3-29,71.6,59.4,51.3,49.4,46.4,42.6,85,64,36,30.20,30.12,7,0,0,0.00
2013-3-30,79.2,61.6,46.8,49.3,45.8,42.5,86,60,31,30.18,29.96,11,0,0,0.00
2013-3-31,74.2,58.7,48.6,49.2,45.7,42.2,80,63,34,30.00,29.92,9,0,0,0.00
2013-4-1,64.5,58.2,53.3,51.0,48.3,46.8,80,70,56,30.16,29.99,11,1,0,0.00
2013-4-2,64.7,57.0,51.7,48.6,46.9,45.3,82,70,51,30.21,30.12,9,1,0,0.00
2013-4-3,66.1,55.9,45.4,50.5,46.9,42.1,90,73,49,30.17,29.90,4,0,0,0.00
2013-4-4,59.9,56.4,53.6,55.8,50.9,46.7,92,82,68,29.90,29.69,22,2,22,0.00
2013-4-5,59.5,54.1,50.5,49.9,48.2,46.6,91,81,67,29.94,29.81,22,5,22,0.00
2013-4-6,57.0,50.5,45.1,48.9,45.1,38.8,92,83,53,30.00,29.72,19,2,19,0.00
2013-4-7,53.1,48.3,43.3,47.6,41.8,37.6,93,79,60,29.97,29.54,30,4,30,0.00
2013-4-8,53.6,49.5,42.2,46.0,41.8,37.5,91,75,60,30.29,29.96,10,1,0,0.00
2013-4-9,56.0,47.7,41.6,45.5,41.3,37.7,90,79,59,30.34,30.24,2,0,0,0.00
2013-4-10,60.9,53.9,47.3,52.2,44.0,35.6,88,70,46,30.34,30.10,23,3,23,0.00
2013-4-11,57.6,49.0,40.1,43.5,39.1,35.8,89,70,52,30.35,30.19,9,0,0,0.00
2013-4-12,53.2,46.4,38.5,45.5,39.2,34.1,88,77,57,30.19,29.86,17,1,17,0.00
2013-4-13,52.5,45.3,38.6,40.9,35.8,30.2,90,70,48,30.09,29.91,19,2,19,0.00
2013-4-14,54.1,45.2,41.2,42.5,38.0,35.5,89,76,52,30.09,29.94,12,1,12,0.00
2013-4-15,59.5,47.3,38.9,43.2,36.6,27.9,90,69,36,30.18,29.95,11,1,0,0.00
2013-4-16,62.3,48.1,38.3,43.8,38.4,32.1,93,72,35,30.40,30.17,13,0,13,0.00
2013-4-17,59.6,48.7,36.9,43.3,37.5,33.7,90,68,40,30.50,30.40,8,0,0,0.00
2013-4-18,59.8,52.7,46.7,48.0,41.3,38.1,87,66,51,30.49,30.31,8,0,0,0.00
2013-4-19,58.4,52.9,49.4,50.9,47.1,43.0,92,81,63,30.31,30.14,18,2,18,0.00
2013-4-20,62.0,53.3,48.9,45.2,42.4,38.6,85,68,46,30.34,30.25,8,1,0,0.00
2013-4-21,53.6,50.1,45.1,48.5,43.4,40.2,88,78,66,30.32,30.25,9,0,0,0.00
2013-4-22,68.1,53.5,40.6,42.8,35.2,24.5,91,58,21,30.44,30.32,13,0,13,0.00
2013-4-23,71.5,55.8,40.6,38.3,32.3,22.9,78,46,18,30.38,30.14,15,1,15,0.00
2013-4-24,79.8,60.5,43.6,40.4,33.4,28.7,72,40,19,30.26,30.00,12,1,12,0.00
2013-4-25,80.9,62.0,44.9,45.7,39.8,34.1,80,48,24,30.15,30.01,8,0,0,0.00
2013-4-26,83.0,63.0,47.4,49.6,42.9,29.6,88,54,17,30.25,30.15,8,0,0,0.00
2013-4-27,72.3,59.2,46.8,46.9,41.6,35.3,79,55,26,30.26,30.18,12,1,12,0.00
2013-4-28,70.1,59.2,52.3,48.5,43.0,32.4,85,58,25,30.26,30.07,15,2,15,0.00
2013-4-29,62.0,53.5,44.8,48.9,37.7,25.8,89,58,27,30.23,30.05,19,2,19,0.00
2013-4-30,59.8,48.6,41.5,40.3,34.0,28.6,80,59,32,30.45,30.23,12,0,12,0.00
2013-5-1,74.6,55.1,39.5,40.7,34.8,32.1,80,51,22,30.52,30.43,11,0,0,0.00
2013-5-2,80.7,64.0,48.2,39.9,35.5,29.7,64,38,16,30.46,30.24,16,1,16,0.00
2013-5-3,80.5,65.3,49.1,44.7,38.2,33.7,67,39,21,30.29,30.12,14,1,14,0.00
2013-5-4,83.6,69.6,54.4,45.8,37.9,29.7,67,37,16,30.13,29.89,18,1,18,0.00
2013-5-5,85.7,71.4,54.4,45.6,39.3,33.8,64,35,17,29.89,29.69,18,1,18,0.00
2013-5-6,86.5,68.9,55.3,53.1,47.2,42.6,69,48,22,29.87,29.72,11,1,0,0.00
2013-5-7,78.6,64.6,53.1,53.6,49.0,44.9,83,59,36,30.02,29.86,11,1,0,0.00
2013-5-8,71.5,60.2,53.2,53.0,49.6,46.5,79,69,49,30.15,30.02,8,0,0,0.00
2013-5-9,81.1,64.6,52.5,53.0,49.9,44.2,85,62,31,30.20,30.06,13,0,13,0.00
2013-5-10,83.6,69.3,54.7,56.6,52.3,46.5,83,58,32,30.19,30.08,8,0,0,0.00
2013-5-11,84.9,71.5,58.4,57.5,52.7,48.5,72,54,30,30.18,29.97,7,0,0,0.00
2013-5-12,70.1,64.6,58.7,58.4,56.4,54.8,93,75,60,30.11,30.05,9,0,0,0.00
2013-5-13,68.8,59.9,52.6,57.5,51.2,41.1,92,75,47,30.22,30.03,23,2,23,0.00
2013-5-14,69.1,57.6,47.0,44.9,40.7,33.2,87,57,28,30.24,30.09,8,0,0,0.00
2013-5-15,58.4,54.5,50.4,51.1,47.0,43.0,84,76,63,30.11,30.02,8,0,0,0.00
2013-5-16,65.8,57.3,53.9,55.6,51.9,49.4,91,83,61,30.02,29.93,13,1,13,0.00
2013-5-17,63.4,55.8,50.1,50.9,47.8,43.5,89,76,51,30.10,29.99,15,1,15,0.00
2013-5-18,57.2,54.0,51.3,52.4,49.6,46.5,92,85,68,30.27,30.10,8,0,0,0.00
2013-5-19,68.1,57.9,52.9,52.1,47.7,42.4,93,71,40,30.41,30.27,10,0,0,0.00
2013-5-20,74.6,60.1,48.9,48.8,44.8,37.3,82,61,27,30.35,29.90,7,0,0,0.00
2013-5-21,59.5,50.6,43.6,48.5,44.7,41.1,92,81,57,29.98,29.81,15,2,15,0.00
2013-5-22,48.0,45.2,42.8,46.1,42.5,39.0,93,90,85,29.99,29.93,18,3,18,0.00
2013-5-23,55.0,48.4,45.2,48.8,45.5,43.3,93,90,69,30.03,29.96,13,2,14,0.00
2013-5-24,58.7,51.8,47.1,50.4,47.1,44.4,94,85,64,30.08,29.97,15,2,15,0.00
2013-5-25,69.4,58.4,50.1,49.6,46.9,39.5,91,68,37,30.07,29.92,11,1,0,0.00
2013-5-26,64.3,58.3,53.9,52.4,49.9,46.2,92,75,55,30.03,29.93,19,2,19,0.00
2013-5-27,62.3,55.9,52.0,58.8,51.7,46.4,93,86,70,29.99,29.74,14,1,14,0.00
2013-5-28,64.7,57.4,52.8,51.3,47.9,42.8,89,72,46,29.94,29.76,16,2,16,0.00
2013-5-29,65.6,56.7,51.0,52.5,49.1,44.0,93,77,47,30.06,29.64,21,2,21,0.00
2013-5-30,63.5,55.5,49.5,50.8,46.5,42.2,87,73,47,30.25,30.06,8,1,15,0.00
2013-5-31,68.6,57.1,51.1,50.1,47.1,42.9,88,71,40,30.32,30.22,7,0,0,0.00
2013-6-1,77.6,63.1,49.8,53.5,48.9,42.2,88,62,38,30.24,30.01,8,0,0,0.00
2013-6-2,74.2,64.3,56.9,51.2,48.9,44.8,76,59,38,30.07,30.02,13,1,13,0.00
2013-6-4,86.7,78.0,70.4,53.2,51.0,46.8,52,40,26,29.99,29.94,11,0,0,0.00
2013-6-5,84.9,71.6,58.4,58.2,52.3,46.8,73,52,32,30.07,29.95,13,0,13,0.00
2013-6-6,85.3,69.8,57.6,56.4,51.8,42.5,77,55,31,30.04,29.96,10,1,0,0.00
2013-6-7,80.7,66.7,54.8,55.8,47.2,37.2,75,52,27,30.15,30.04,10,0,0,0.00
2013-6-8,81.1,65.1,52.2,51.0,46.5,34.6,80,55,28,30.18,30.04,11,0,0,0.00
2013-6-9,76.3,62.9,53.3,48.8,46.3,42.2,76,57,30,30.11,29.97,13,1,13,0.00
2013-6-10,72.3,59.4,48.8,47.0,43.7,41.3,80,58,38,30.03,29.89,12,1,13,0.00
2013-6-11,64.5,58.7,54.2,51.5,44.9,41.5,76,60,46,30.14,29.98,13,1,13,0.00
2013-6-12,62.9,57.3,53.3,52.9,48.6,44.5,89,73,54,30.18,30.13,15,0,15,0.00
2013-6-13,60.9,55.5,50.8,55.5,51.0,45.9,93,85,67,30.29,30.16,11,1,0,0.00
2013-6-14,71.1,60.3,53.5,50.5,48.8,45.2,84,67,46,30.29,29.98,11,0,0,0.00
2013-6-15,82.4,66.5,52.3,54.9,50.4,44.0,88,60,28,29.99,29.88,11,0,0,0.00
2013-6-16,74.7,62.8,55.9,56.5,52.3,49.8,81,69,49,30.09,29.99,7,0,0,0.00
2013-6-17,78.1,66.3,55.1,53.1,49.8,44.2,83,58,33,30.09,29.92,13,1,15,0.00
2013-6-18,70.9,64.2,56.6,50.4,47.5,42.8,78,56,38,30.00,29.92,18,2,18,0.00
2013-6-19,67.1,59.7,54.2,54.2,48.2,45.3,77,66,51,30.08,29.95,13,1,13,0.00
2013-6-20,68.8,60.2,53.2,52.1,49.1,44.5,87,68,43,30.14,30.04,14,1,14,0.00
2013-6-21,70.6,62.9,56.7,52.3,48.9,46.1,77,61,43,30.17,30.11,7,0,0,0.00
2013-6-22,80.7,66.9,52.6,52.9,48.3,38.7,89,57,24,30.12,29.83,9,0,0,0.00
2013-6-23,69.9,65.0,60.5,62.2,57.9,52.1,91,78,55,29.83,29.63,5,0,0,0.00
2013-6-24,68.9,61.4,56.2,60.0,53.6,49.0,92,77,52,29.72,29.62,16,2,16,0.00
2013-6-25,70.8,63.1,58.0,60.2,55.9,51.4,90,78,56,29.86,29.67,12,1,12,0.00
2013-6-26,72.1,66.3,59.3,61.4,57.3,53.8,92,74,54,30.04,29.85,11,1,0,0.00
2013-6-27,76.3,66.2,62.9,62.7,58.8,56.6,82,77,58,30.15,30.00,7,0,0,0.00
2013-6-28,93.6,76.5,63.4,65.2,60.9,53.9,89,63,28,30.14,29.98,12,0,13,0.00
2013-6-29,91.4,77.4,64.5,61.6,58.2,54.8,76,54,31,30.09,29.94,8,0,0,0.00
2013-6-30,98.7,80.7,66.1,64.8,61.5,58.4,81,55,28,29.97,29.79,10,0,0,0.00
2013-7-1,93.6,79.6,68.8,66.4,61.8,57.8,73,56,36,30.00,29.88,9,0,0,0.00
2013-7-2,88.8,75.7,65.0,61.1,57.4,49.8,76,56,27,30.07,29.99,15,1,15,0.00
2013-7-3,86.5,72.0,61.2,54.8,49.6,39.9,71,48,22,30.14,30.00,11,0,0,0.00
2013-7-4,77.6,65.5,55.6,53.0,50.5,48.3,81,60,40,30.15,30.02,11,1,0,0.00
2013-7-5,77.0,65.1,57.0,53.6,50.7,48.0,75,61,40,30.06,29.93,10,0,0,0.00
2013-7-6,81.1,66.1,54.8,57.1,52.6,48.9,83,64,38,29.98,29.83,9,0,0,0.00
2013-7-7,80.7,67.0,58.3,58.2,54.6,51.8,80,66,46,29.97,29.86,10,0,0,0.00
2013-7-8,84.3,68.8,56.7,58.4,53.2,49.9,79,60,34,30.09,29.97,10,0,0,0.00
2013-7-9,90.3,74.9,61.0,59.1,56.6,51.1,84,57,28,30.07,29.95,13,0,13,0.00
2013-7-10,82.0,68.9,58.9,55.2,51.6,45.5,74,56,31,30.07,29.92,12,1,12,0.00
2013-7-11,78.5,64.9,53.6,48.8,46.2,43.5,77,53,31,30.09,29.95,11,1,0,0.00
2013-7-12,75.1,63.8,52.0,51.4,47.5,44.9,78,57,36,30.10,29.99,12,1,12,0.00
2013-7-13,82.0,66.9,53.3,50.7,45.9,39.2,76,50,23,30.16,30.01,12,0,12,0.00
2013-7-14,88.0,72.0,57.3,51.5,47.6,38.3,75,46,19,30.08,29.94,14,1,14,0.00
2013-7-15,87.4,71.4,57.6,51.6,47.6,41.9,74,46,26,30.01,29.78,13,0,13,0.00
2013-7-16,92.5,76.0,64.2,56.9,51.2,44.5,67,44,20,29.97,29.75,13,1,13,0.00
2013-7-17,80.3,68.0,61.3,56.9,53.9,51.4,74,62,41,30.16,29.96,11,1,0,0.00
2013-7-18,84.3,69.3,58.7,58.1,54.0,49.5,80,61,32,30.20,30.05,12,1,12,0.00
2013-7-19,84.3,69.1,58.7,60.0,55.7,51.7,80,64,42,30.14,29.98,14,0,14,0.00
2013-7-20,83.8,67.3,58.4,59.3,55.1,52.1,86,67,41,30.08,29.92,10,0,0,0.00
2013-7-21,84.0,67.5,58.6,60.2,54.9,51.7,80,66,41,29.99,29.88,11,0,0,0.00
2013-7-22,84.0,69.1,58.7,59.4,54.9,51.9,80,63,34,30.05,29.93,9,0,0,0.00
2013-7-23,91.2,73.6,61.0,60.9,57.4,52.3,85,61,28,30.04,29.91,14,0,14,0.00
2013-7-24,91.6,74.7,60.1,59.2,54.7,47.8,78,53,23,30.03,29.94,12,1,12,0.00
2013-7-25,91.0,74.2,59.8,56.9,51.5,40.9,72,48,19,30.08,29.99,12,1,12,0.00
2013-7-26,90.3,73.3,59.8,55.1,49.6,39.3,70,47,23,30.15,30.03,12,1,12,0.00
2013-7-27,82.6,67.7,55.3,53.0,49.5,47.1,81,55,31,30.18,29.99,9,0,0,0.00
2013-7-28,76.7,63.7,54.8,53.8,50.3,48.2,79,63,44,30.06,29.96,9,0,0,0.00
2013-7-29,79.2,67.3,59.0,57.1,52.1,48.8,70,59,44,30.01,29.92,10,0,0,0.00
2013-7-30,84.0,69.0,57.6,57.1,54.3,51.3,81,62,35,30.14,30.01,10,0,0,0.00
2013-7-31,80.1,67.8,60.2,59.0,56.2,54.1,82,68,43,30.11,29.99,8,0,0,0.00
2013-8-1,66.0,62.0,58.7,56.9,54.3,52.4,89,76,67,30.10,30.04,10,0,0,0.00
2013-8-2,71.6,65.1,59.0,56.5,53.3,51.5,81,67,50,30.14,30.08,7,0,0,0.00
2013-8-3,83.6,69.3,61.2,58.1,56.2,54.7,81,65,39,30.10,29.96,10,0,0,0.00
2013-8-4,90.3,74.2,60.9,62.1,58.3,53.7,85,61,31,30.01,29.87,10,0,0,0.00
2013-8-5,91.4,75.1,62.6,60.8,57.1,51.7,80,57,28,30.00,29.88,13,0,13,0.00
2013-8-6,92.7,75.0,60.2,58.3,52.5,40.2,74,49,21,29.99,29.87,9,0,0,0.00
2013-8-7,84.9,72.5,60.4,56.9,54.5,49.7,81,56,33,30.02,29.92,10,0,0,0.00
2013-8-8,83.8,70.1,61.8,61.3,56.6,53.4,78,63,42,30.04,29.88,11,0,0,0.00
2013-8-9,80.9,69.9,61.0,60.3,55.7,51.5,78,62,43,29.94,29.84,10,0,0,0.00
2013-8-10,81.1,70.8,61.6,64.9,59.4,55.9,82,68,49,30.02,29.88,9,0,0,0.00
2013-8-11,75.8,67.2,61.2,58.6,56.7,54.7,81,70,53,30.07,29.97,8,0,0,0.00
2013-8-12,80.5,68.4,59.9,57.5,55.3,53.2,84,65,41,30.06,29.98,8,0,0,0.00
2013-8-13,86.5,69.7,55.9,58.2,52.8,40.4,86,59,23,30.10,29.90,7,0,0,0.00
2013-8-14,83.4,71.3,59.3,60.1,53.6,44.0,81,57,26,29.96,29.89,8,0,0,0.00
2013-8-15,79.8,72.7,67.3,65.5,61.2,57.6,79,68,55,29.96,29.92,6,0,0,0.00
2013-8-16,84.5,73.2,65.8,64.9,62.1,56.4,88,70,43,30.03,29.94,10,0,0,0.00
2013-8-17,84.7,71.6,60.5,59.4,56.0,53.2,79,59,39,30.08,30.00,10,0,0,0.00
2013-8-18,84.9,71.7,63.4,58.3,56.4,52.9,78,60,38,30.13,30.02,9,0,0,0.00
2013-8-19,83.4,70.9,60.7,57.3,55.4,46.8,84,61,36,30.11,30.02,13,1,13,0.00
2013-8-20,83.6,68.6,56.5,55.8,50.9,44.0,81,57,28,30.13,29.97,14,1,14,0.00
2013-8-21,89.5,82.5,73.7,52.8,50.7,48.4,43,34,27,29.86,29.82,13,1,13,0.00
2013-8-22,82.2,72.7,62.0,63.3,54.5,49.3,79,54,38,29.89,29.81,8,0,0,0.00
2013-8-23,76.8,71.6,66.1,57.2,56.1,54.3,71,59,47,29.93,29.85,8,0,0,0.00
2013-8-24,78.8,68.6,63.1,58.5,54.6,48.4,82,63,40,29.91,29.83,9,0,0,0.00
2013-8-25,70.3,64.3,59.5,61.0,56.0,50.1,89,75,58,29.93,29.88,6,0,0,0.00
2013-8-26,78.1,67.7,61.0,60.7,55.7,45.0,90,69,33,29.97,29.88,19,1,19,0.00
2013-8-27,82.2,70.4,61.6,62.3,59.3,56.6,91,71,43,29.96,29.78,8,0,0,0.00
2013-8-28,82.6,72.6,62.7,65.2,60.1,56.1,90,67,45,29.89,29.82,7,0,0,0.00
2013-8-29,77.6,70.7,65.6,67.7,63.0,59.3,93,78,55,30.06,29.83,21,2,21,0.00
2013-8-30,83.0,72.7,64.5,62.1,58.9,53.8,89,65,38,30.14,30.02,8,1,0,0.00
2013-8-31,92.3,73.3,59.9,60.6,57.3,53.3,89,61,27,30.04,29.78,8,0,0,0.00
2013-9-1,87.0,72.3,60.2,59.4,54.7,48.7,79,57,27,29.90,29.77,13,0,13,0.00
2013-9-2,83.0,72.8,64.0,60.7,56.2,51.2,79,58,36,29.91,29.85,12,1,12,0.00
2013-9-3,79.8,69.8,61.0,62.5,58.1,52.6,92,69,40,29.98,29.90,7,0,0,0.00
2013-9-4,72.3,66.7,63.9,59.1,57.6,56.7,80,73,62,30.04,29.96,8,0,0,0.00
2013-9-7,77.4,72.1,68.8,59.9,59.0,57.5,71,64,51,29.99,29.94,6,0,0,0.00
2013-9-8,84.9,72.2,60.7,62.3,58.6,55.3,87,65,38,30.06,29.96,15,0,15,0.00
2013-9-9,83.8,71.5,63.1,63.4,60.1,57.3,85,69,42,30.03,29.90,14,0,14,0.00
2013-9-10,89.5,74.9,63.4,66.0,61.6,58.6,86,66,41,29.91,29.76,9,0,0,0.00
2013-9-11,82.4,71.1,65.8,63.0,61.1,59.7,82,71,52,29.91,29.80,6,0,0,0.00
2013-9-12,86.5,72.9,63.4,64.8,59.9,56.8,82,65,41,30.00,29.87,8,0,0,0.00
2013-9-13,72.8,67.4,62.0,61.7,59.2,56.5,85,75,66,29.96,29.83,7,0,0,0.00
2013-9-14,76.7,69.6,64.0,64.0,60.8,58.8,85,74,61,29.85,29.69,7,0,0,0.00
2013-9-15,77.0,67.1,63.4,63.1,59.5,57.1,84,77,60,29.88,29.70,8,1,0,0.00
2013-9-16,72.8,65.1,61.5,62.2,57.5,54.3,86,76,63,29.97,29.88,13,1,13,0.00
2013-9-17,69.3,63.4,58.0,60.3,52.4,47.9,84,68,53,30.00,29.86,10,0,12,0.00
2013-9-18,69.9,63.2,58.3,53.7,51.5,46.6,81,66,46,30.09,30.00,8,0,0,0.00
2013-9-19,76.3,64.1,54.8,53.3,49.8,45.1,81,62,35,30.01,29.76,9,0,0,0.00
2013-9-20,70.8,63.3,55.0,56.0,52.2,48.3,81,68,53,29.77,29.64,15,1,15,0.00
2013-9-21,68.3,63.4,59.3,60.0,55.7,53.6,83,76,65,29.77,29.67,9,0,0,0.00
2013-9-22,62.3,59.2,57.3,56.7,53.7,48.7,90,82,64,29.86,29.66,25,3,26,0.00
2013-9-23,62.7,59.5,56.9,57.5,54.4,52.9,89,83,76,30.00,29.85,11,1,0,0.00
2013-9-24,65.8,58.0,53.6,55.6,52.4,49.5,88,82,68,29.99,29.86,9,0,0,0.00
2013-9-25,59.6,55.4,49.9,52.3,48.8,45.1,88,79,63,30.03,29.85,9,0,0,0.00
2013-9-26,69.9,56.6,49.2,57.7,48.6,46.1,90,76,44,30.17,30.03,5,0,0,0.37
2013-9-27,56.0,53.2,49.4,53.3,49.0,46.0,92,86,81,30.17,29.91,18,2,18,0.25
2013-9-28,63.9,58.0,52.5,57.7,54.8,50.2,93,89,76,29.91,29.48,26,5,26,1.46
2013-9-29,56.9,53.8,51.7,54.7,51.4,49.5,93,92,89,29.68,29.36,24,4,24,0.97
2013-9-30,58.6,53.2,50.2,53.7,49.2,46.3,92,87,72,30.00,29.59,21,3,21,0.55
2013-10-1,59.0,52.0,46.7,52.1,47.7,43.4,94,86,60,30.19,29.98,18,1,19,0.33
2013-10-2,54.1,48.4,44.2,47.8,44.7,42.0,92,87,72,30.19,30.08,10,0,0,0.28
2013-10-3,59.2,49.3,44.6,49.4,45.4,41.6,94,87,64,30.43,30.19,5,0,0,0.01
2013-10-4,69.6,53.5,41.8,51.7,46.2,39.1,92,78,48,30.45,30.33,6,0,0,0.01
2013-10-5,73.7,57.7,46.8,50.2,46.7,43.7,90,70,40,30.34,30.13,6,0,0,0.00
2013-10-6,75.3,58.1,43.5,52.8,44.9,38.5,92,66,35,30.14,29.95,11,1,0,0.00
2013-10-7,57.5,55.2,53.3,47.0,45.1,43.3,78,69,60,30.13,29.98,7,1,0,0.08
2013-10-8,57.6,52.1,45.1,50.7,46.5,41.3,88,81,62,30.15,29.98,11,1,0,0.03
2013-10-9,61.5,50.5,43.3,47.0,42.9,40.0,90,77,48,30.12,29.97,7,0,0,0.00
2013-10-10,61.0,53.2,46.2,54.0,46.6,42.5,91,79,54,30.09,29.96,8,0,0,0.01
2013-10-11,59.8,53.7,49.6,48.9,46.4,44.0,89,77,59,30.15,30.09,6,0,0,0.00
2013-10-12,57.6,51.3,46.2,48.8,45.9,42.8,88,82,69,30.17,30.07,5,0,0,0.01
2013-10-13,65.8,52.6,45.4,52.1,44.8,42.1,90,76,49,30.31,30.17,12,0,12,0.00
2013-10-14,69.4,54.5,43.9,47.7,44.4,40.6,90,71,43,30.37,30.28,7,0,0,0.00
2013-10-15,73.5,55.9,45.2,45.5,42.1,36.7,88,63,30,30.34,30.13,9,0,0,0.00
2013-10-16,69.8,54.8,46.1,48.5,45.1,41.9,88,72,39,30.17,30.10,5,0,0,0.00
2013-10-17,67.8,55.5,48.6,50.5,47.2,44.8,88,75,49,30.24,30.14,7,0,0,0.00
2013-10-18,73.9,58.1,47.4,47.6,45.1,40.3,89,65,36,30.18,30.07,11,0,0,0.00
2013-10-19,72.7,56.3,45.7,54.0,46.6,42.2,90,72,40,30.16,30.09,5,0,0,0.00
2013-10-20,63.2,52.5,47.9,50.6,46.8,43.9,92,82,60,30.16,30.06,2,0,0,0.00
2013-10-21,76.0,57.6,47.6,54.3,48.3,44.5,89,73,40,30.10,29.98,8,0,0,0.00
2013-10-22,79.8,60.1,47.7,52.1,48.5,44.2,89,68,35,30.05,29.94,6,0,0,0.00
2013-10-23,76.7,60.0,48.8,53.9,49.4,45.1,90,71,39,30.00,29.92,7,0,0,0.00
2013-10-24,71.3,56.9,49.9,54.3,49.4,46.4,91,77,48,30.10,29.98,4,0,0,0.00
2013-10-25,57.0,53.7,51.0,49.5,48.4,47.0,90,82,74,30.27,30.10,6,0,0,0.00
2013-10-26,58.0,53.3,49.2,48.7,47.0,43.6,86,80,66,30.29,30.17,8,0,0,0.00
2013-10-27,57.3,51.4,48.3,53.1,45.3,42.3,92,80,65,30.18,29.83,15,1,15,0.07
2013-10-28,63.2,50.7,41.9,44.5,35.6,25.7,89,61,26,29.93,29.82,17,1,17,0.00
2013-10-29,65.5,46.4,36.3,37.8,34.6,31.3,89,67,31,30.06,29.93,6,0,0,0.00
2013-10-30,61.3,46.6,34.1,45.4,36.6,30.4,87,70,42,30.20,30.06,7,0,0,0.00
2013-10-31,59.2,54.0,50.5,50.6,47.5,44.5,86,79,69,30.27,30.15,13,1,13,0.01
2013-11-1,66.9,55.4,49.4,51.8,49.1,46.0,91,80,52,30.28,29.90,9,0,0,0.13
2013-11-2,60.2,51.8,44.3,51.0,44.6,36.6,93,78,47,30.06,29.72,22,3,22,0.56
2013-11-3,52.5,46.5,42.6,45.2,41.3,38.8,90,82,64,30.15,30.05,10,1,0,0.12
2013-11-4,48.8,47.0,45.1,46.1,44.4,42.4,92,91,86,30.18,30.11,6,0,0,0.32
2013-11-5,53.6,50.8,47.1,50.6,48.4,44.9,93,91,87,30.25,30.09,13,1,13,0.08
2013-11-6,54.4,51.5,49.8,52.1,49.3,47.6,93,92,91,30.30,30.08,5,0,0,0.43
2013-11-7,55.7,51.3,48.6,53.6,47.1,41.8,94,86,69,30.10,29.87,19,3,19,0.44
2013-11-8,51.1,48.2,46.4,46.5,44.7,43.4,92,88,83,30.16,30.13,2,0,0,0.01
2013-11-9,51.1,48.0,44.2,45.4,43.6,41.5,91,85,77,30.13,30.04,3,0,0,0.00
2013-11-10,60.7,51.7,46.2,48.6,45.2,43.1,90,79,59,30.09,30.04,4,0,0,0.00
2013-11-11,63.5,53.4,45.8,45.0,41.8,40.0,89,66,46,30.15,30.01,14,1,14,0.00
2013-11-12,56.3,52.3,48.9,54.0,49.5,40.6,94,90,60,30.42,30.07,11,0,0,0.24
2013-11-13,60.5,51.3,45.2,51.5,47.1,42.2,93,86,67,30.49,30.30,7,0,0,0.00
2013-11-14,50.8,47.8,44.3,46.4,44.7,42.1,93,89,79,30.30,30.10,8,1,0,0.06
2013-11-15,47.7,45.3,43.1,44.0,42.1,40.7,92,89,81,30.11,29.53,26,3,26,0.09
2013-11-16,49.8,47.0,44.3,45.1,41.1,38.5,89,80,71,29.85,29.52,14,2,14,0.03
2013-11-17,55.6,50.5,45.8,44.9,43.0,40.5,86,76,65,29.99,29.85,20,5,20,0.01
2013-11-18,54.1,52.0,50.7,49.1,45.4,41.3,90,79,66,29.97,29.71,20,4,20,0.32
2013-11-19,53.1,48.5,39.3,50.3,43.3,30.1,92,82,62,30.04,29.70,23,2,23,0.36
2013-11-20,55.4,39.6,32.8,35.2,30.8,23.5,89,72,38,30.37,30.03,11,0,0,0.01
2013-11-21,54.7,41.3,30.0,28.6,18.2,10.1,85,42,22,30.59,30.53,8,1,0,0.00
2013-11-22,51.0,39.5,31.0,26.5,19.7,13.1,81,48,28,30.59,30.40,14,1,15,0.00
2013-11-23,54.1,43.4,38.9,20.5,18.0,14.8,47,36,24,30.41,30.17,17,2,17,0.00
2013-11-24,57.6,43.7,35.5,26.7,21.7,16.9,68,43,23,30.28,30.16,14,0,14,0.00
2013-11-25,57.5,41.3,30.7,27.6,25.0,22.7,81,55,27,30.35,30.28,11,0,0,0.00
2013-11-26,53.8,42.1,31.5,33.2,28.7,26.3,86,61,38,30.29,30.08,7,0,0,0.00
2013-11-27,55.4,45.9,40.8,30.2,28.3,26.4,60,50,37,30.08,29.96,11,0,0,0.00
2013-11-28,58.4,45.0,38.0,36.1,30.7,27.9,76,58,36,30.21,30.03,7,1,0,0.00
2013-11-29,46.5,39.7,31.8,39.3,33.3,27.6,87,78,66,30.37,30.21,5,0,0,0.01
2013-11-30,50.5,46.1,42.3,45.5,40.7,38.4,90,82,69,30.39,30.21,6,0,0,0.10
2013-12-1,56.6,53.0,48.3,51.8,49.6,45.5,92,88,81,30.21,29.91,26,8,26,0.88
2013-12-2,52.8,43.9,37.3,49.1,38.7,32.1,92,83,53,30.06,29.90,13,1,13,0.09
2013-12-3,49.1,38.6,32.4,36.1,13.7,-99.9,89,67,34,30.30,30.06,12,0,12,0.00
2013-12-4,43.8,35.6,32.4,18.5,-71.8,-99.9,64,50,30,30.35,30.29,6,0,0,0.00
2013-12-5,36.6,34.4,29.4,15.4,-70.8,-99.9,54,43,38,30.32,30.17,13,0,13,0.02
2013-12-6,32.2,30.9,28.7,16.6,-79.2,-99.9,59,46,44,30.17,29.99,15,2,15,0.00
2013-12-7,35.6,29.9,25.4,4.7,-75.0,-99.9,46,37,25,30.45,30.12,18,1,18,0.00
2013-12-8,33.7,29.4,21.4,10.0,-73.5,-99.9,58,37,31,30.61,30.44,3,0,0,0.00
2013-12-9,30.3,30.3,30.3,-99.9,-99.9,-99.9,41,41,41,30.63,30.52,4,0,0,0.00
2013-12-10,37.9,34.1,30.3,26.4,-70.6,-99.9,69,54,41,30.54,30.41,4,0,0,0.00
2013-12-11,45.2,39.1,29.1,32.8,-68.2,-99.9,90,67,56,30.41,30.21,4,0,0,0.00
2013-12-12,41.1,41.1,41.1,-99.9,-99.9,-99.9,68,68,68,30.23,30.12,4,0,0,0.00
2013-12-13,41.1,41.1,41.1,-99.9,-99.9,-99.9,68,68,68,30.43,30.21,5,0,0,0.00
2013-12-14,41.1,41.1,41.1,-99.9,-99.9,-99.9,68,68,68,30.46,30.37,9,0,0,0.00
2013-12-15,47.6,44.0,41.1,42.1,-72.8,-99.9,89,75,68,30.49,30.42,5,0,0,0.00
2013-12-16,47.0,47.0,47.0,-99.9,-99.9,-99.9,82,82,82,30.48,30.25,4,0,0,0.00
2013-12-17,47.0,47.0,47.0,-99.9,-99.9,-99.9,82,82,82,30.25,30.18,6,0,0,0.00
2013-12-18,47.0,45.0,41.6,38.9,-86.3,-99.9,88,84,82,30.19,30.05,6,0,0,0.00
2013-12-19,42.5,40.2,35.5,33.6,-66.7,-99.9,86,81,70,30.34,30.13,5,0,0,0.00
2013-12-20,38.0,38.0,38.0,-99.9,-99.9,-99.9,78,78,78,30.24,29.88,19,3,19,0.00
2013-12-21,53.8,46.0,38.0,47.9,-71.1,-99.9,93,78,73,30.23,29.93,7,0,0,0.00
2013-12-22,52.6,52.4,52.2,47.2,-85.5,-99.9,82,79,76,30.35,30.22,12,2,12,0.00
2013-12-23,52.2,52.2,52.2,-99.9,-99.9,-99.9,82,82,82,30.54,30.30,17,1,17,0.00
2013-12-24,52.2,52.2,52.2,-99.9,-99.9,-99.9,82,82,82,30.62,30.49,5,0,0,0.00
2013-12-25,52.2,47.5,38.2,37.2,-67.0,-99.9,86,77,62,30.49,30.39,5,0,0,0.00
2013-12-26,45.7,41.8,34.1,35.8,-64.3,-99.9,91,76,65,30.41,30.24,5,0,0,0.00
2013-12-27,40.5,40.5,40.5,-99.9,-99.9,-99.9,78,78,78,30.40,30.21,5,0,0,0.00
2013-12-28,46.8,42.9,40.5,39.7,-83.6,-99.9,84,75,70,30.50,30.40,4,0,0,0.00
2013-12-29,45.4,44.1,41.6,36.8,-86.8,-99.9,81,75,72,30.46,30.30,3,0,0,0.00
2013-12-30,42.5,42.5,42.5,-99.9,-99.9,-99.9,78,78,78,30.31,30.19,7,0,0,0.00
2013-12-31,48.6,45.3,42.5,42.6,-80.4,-99.9,87,79,78,30.35,30.23,4,0,0,0.00
2014-1-1,53.8,47.3,41.8,42.4,-63.4,-99.9,90,79,63,30.37,30.26,7,0,0,0.00
2014-1-2,46.0,44.2,39.2,39.9,-75.3,-99.9,93,81,79,30.27,30.03,8,1,0,0.00